STARLINK-31136, 58772

Orbit data source: Space-Track

STARLINK-31136, 58772 is a payload satellite owned by SpaceX/Seattle (US) in LEO that was launched on Sun, 14 Jan 2024 UTC via an FALCON 9 launch vehicle from the Air Force Western Test Range (AFWTR). Payload-class satellites include a variety of spacecraft equipped with specific instruments for various scientific and technological missions. These include communications satellites like Starlink; space stations such as the ISS; scientific satellites like the Hubble; Earth observation satellites from companies like Planet Labs, Umbra, and HawkEye 360; GPS; miniature CubeSats for education and research; and military/defense satellites.

Loading next visibility...
Identifier
58772, 2024-011H
Orbit
LEO
Country
Flag of USUS
Related business
Manufacturer
SpaceX/Seattle
Mission
Operational Commercial Communications
Bus & Motor
STARLINK V2M, Unknown motor
Mass
730 kg wet, ~700 kg dry
Launch date (UTC)
2024-01-14 (2 years ago)
Launch vehicle
FALCON 9
Launch site
Air Force Western Test Range (AFWTR)
Object type
Payload
Rocket body
Debris
Shape & HBR
Box + 2 Pan, 17.7 m
Radar Cross Section
33.884 m², Large (>1 m²)

Expand to show TLE details & history
Last TLE update: 3 days ago

TLE from 3 days ago
0 STARLINK-31136
1 58772U 24011H   26170.50638221 -.00000621  00000-0 -72576-5 0  9993
2 58772  53.1614 260.4086 0001099  88.9759 271.1370 15.34387933135851
Epoch: 2026-06-19T12:09Z
TLE epoch observation values (Epoch: 2026-06-19T12:09:11.422Z)
Latitude
-0.00001°
Longitude
170.37662°
Altitude
463.626 km
Speed
7.636 km/s
True Right ascension
17h 21m 38s
True Declination
0° 00' 00"
Sunlit
Object was in full shadow at epoch
Visualization orbit readout
Latitude
Unknown
Longitude
Unknown
Altitude
Unknown
Speed
Unknown
Apparent Right ascension
Unknown
Apparent Declination
Unknown
Sunlit
N/A
Visualization observer readout
Local Sidereal Time
21:26:09
Azimuth
Unknown
Elevation
Unknown
Doppler factor
Unknown
Orbital elements
Apogee altitude
463.748 km
Perigee altitude
462.244 km
Semi-major axis
6,841.133 km
Eccentricity
0.00011
Inclination
53.1614°
RAAN
260.4086°
Arg. of periapsis
88.9759°
True anomaly
271.12441°
Mean anomaly
271.137°
Eccentric anomaly
271.1307°
Mean motion
3.83576 °/min
Orbital period
93.85 mins
BSTAR
-0.0000072576
Loading maneuver chart data...
Computing Atmospheric mass density...
Loading historical data...
Loading historical data...
Loading historical data...
Loading historical data...
Loading historical data...
Loading historical data...
Loading historical data...

Documentation

Showing up to 5 results
|